Regional Weather Roundup
Issued by NWS Raleigh/Durham, NC

Home | Current Version | Previous Version | Text Only | Print | Product List | Glossary On
Versions: 1 2 3 4 5 6 7 8 9 10 11 12 13 14 15 16 17 18 19 20 21 22 23 24 25 26 27 28 29 30 31 32 33 34 35 36 37 38 39 40 41 42 43 44 45 46 47 48 49 50
000
ASUS42 KRAH 021810
RWRRAH
NORTH CAROLINA WEATHER ROUNDUP
NATIONAL WEATHER SERVICE RALEIGH NC
100 PM EST MON MAR 02 2015

NOTE: "FAIR" INDICATES FEW OR NO CLOUDS BELOW 12,000 FEET WITH NO
SIGNIFICANT WEATHER AND/OR OBSTRUCTIONS TO VISIBILITY.

NCZ001-053-055-056-065-067-021900-
WESTERN NORTH CAROLINA

CITY           SKY/WX    TMP DP  RH WIND       PRES   REMARKS
ASHEVILLE      MOSUNNY   49  36  61 N17G25    30.29F
JEFFERSON      PTSUNNY   42  29  59 N8        30.25S
MORGANTON      SUNNY     62  41  45 SW9       30.27F
HICKORY        SUNNY     63  40  42 MISG      30.21F
RUTHERFORDTON  MOSUNNY   64  45  50 NE6       30.24S
MOUNT AIRY     SUNNY     55  33  44 NW12G17   30.28F
BOONE          CLOUDY    38  36  95 W28G35    30.23F WCI  26
$$

NCZ021-022-025-041-071-084-088-021900-
CENTRAL NORTH CAROLINA

CITY           SKY/WX    TMP DP  RH WIND       PRES   REMARKS
CHARLOTTE      FAIR      61  47  59 VRB5      30.24F
GREENSBORO     PTSUNNY   58  37  45 NW10G21   30.23S
WINSTON-SALEM  SUNNY     58  34  40 NW13G23   30.25S
RALEIGH-DURHAM PTSUNNY   58  39  49 VRB7      30.24F
FORT BRAGG     SUNNY     61  47  59 N10       30.22F
FAYETTEVILLE   SUNNY     59  47  64 N8G18     30.23F
BURLINGTON     SUNNY     59  38  45 NW12      30.23F
LAURINBURG     MOSUNNY   59  48  67 N6        30.24F
$$

NCZ011-015-027-028-043-044-047-080-103-021900-
NORTHEASTERN NORTH CAROLINA

CITY           SKY/WX    TMP DP  RH WIND       PRES   REMARKS
ROCKY MT-WILSO SUNNY     59  45  59 NW9G22    30.23F
GREENVILLE     SUNNY     57  45  62 N12       30.24F
WASHINGTON     MOSUNNY   55  46  69 N10       30.23F
ELIZABETH CITY MOSUNNY   48  38  68 N12       30.26F
MANTEO         PTSUNNY   43  37  81 N10       30.27S
CAPE HATTERAS  CLOUDY    44  43  96 NW7       30.22F
$$

NCZ078-087-090-091-093-098-101-021900-
SOUTHEASTERN NORTH CAROLINA

CITY           SKY/WX    TMP DP  RH WIND       PRES   REMARKS
LUMBERTON      PTSUNNY   55  48  77 CALM      30.23F
GOLDSBORO      SUNNY     58  57  97 NW3       30.21F
KINSTON        SUNNY     57  46  67 NW9       30.23F
KENANSVILLE    MOSUNNY   55  46  72 NW6       30.25F
NEW BERN       MOSUNNY   59  48  67 N9        30.23F
CHERRY POINT   MOSUNNY   59  47  64 NW15      30.24S
BEAUFORT       MOSUNNY   56  51  84 W8        30.22F
JACKSONVILLE   MOSUNNY   57  48  72 VRB5      30.22F
WILMINGTON     CLOUDY    53  49  86 W7        30.24F
$$



USA.gov is the U.S. government's official web portal to all federal, state and local government web resources and services.